Location: Caltech
(34.1382°N, 118.1253°W)
Time: 02:45:50
(UTC-07:00)

OAO 2 Rocket - Visible Passes

Search period start: 28 June 2016 00:00
Search period end: 08 July 2016 00:00
Orbit: 676 x 747 km, 35.0° (Epoch: 27 June)

Date Brightness Start Highest point End Pass type
(mag) Time Alt. Az. Time Alt. Az. Time Alt. Az.
28 Jun 5.8 00:14:44 10° W 00:15:16 13° W 00:15:16 13° W visible
28 Jun 3.4 21:32:14 10° WSW 21:37:30 63° SSE 21:42:20 12° E visible
28 Jun 3.8 23:17:01 10° W 23:21:19 58° W 23:21:19 58° W visible
29 Jun 3.7 20:34:49 10° SW 20:39:54 48° SSE 20:45:01 10° E visible
29 Jun 3.4 22:19:19 10° W 22:24:40 87° N 22:27:04 34° E visible
30 Jun 5.3 00:04:18 10° W 00:06:03 21° W 00:06:03 21° W visible
30 Jun 3.4 21:21:39 10° WSW 21:26:58 83° SSE 21:32:19 10° E visible
30 Jun 3.5 23:06:35 10° W 23:11:35 76° NW 23:11:35 76° NW visible
01 Jul 3.4 22:08:53 10° W 22:14:14 81° N 22:16:58 29° E visible
01 Jul 5.2 23:53:50 10° W 23:55:56 24° W 23:55:56 24° W visible
02 Jul 3.5 21:11:12 10° W 21:16:30 85° N 21:21:51 10° E visible
02 Jul 3.3 22:56:09 10° W 23:01:16 82° W 23:01:16 82° W visible
03 Jul 3.4 21:58:28 10° W 22:03:48 83° N 22:06:32 30° E visible
03 Jul 5.2 23:43:24 10° W 23:45:29 23° W 23:45:29 23° W visible
04 Jul 3.5 21:00:47 10° W 21:06:05 81° N 21:11:26 10° E visible
04 Jul 3.4 22:45:42 10° W 22:50:44 70° SW 22:50:44 70° SW visible
05 Jul 3.3 21:48:01 10° W 21:53:20 85° SSW 21:55:57 31° ESE visible
05 Jul 5.3 23:33:05 10° W 23:34:54 20° W 23:34:54 20° W visible
06 Jul 3.5 20:50:22 10° W 20:55:39 85° N 21:01:00 10° E visible
06 Jul 3.7 22:35:18 10° W 22:40:09 51° SW 22:40:09 51° SW visible
07 Jul 3.4 21:37:35 10° W 21:42:50 67° SSW 21:45:24 30° SE visible
07 Jul 5.6 23:23:03 10° W 23:24:21 15° WSW 23:24:21 15° WSW visible
